Meteo Giornale » Osservazioni meteo Italia » Napoli-Capodichino

ore: 22:20 - Osservazioni Meteo Napoli-Capodichino
Lat. 40° 51' N Lon. 14° 18' E Alt. 88 metri s.l.m.

poco_nuvoloso Europe/Rome

10 °C

Poco Nuvoloso

Temp. 24 Ore

10 °C

15 °C

Nord

3.7 Km/h

Dew point 8 °C

Umidità 87 %

Visibilità  8 Km

Il sole sorge alle ore 07:14

Il sole tramonta alle ore 17:17

Data e Ora Cielo e Fenomeni T °C DP °C Um. % Pres. hPa Vis. km Vento km/h
Oggi h: 22:20 poco_nuvoloso Poco Nuvoloso 10 8 87 1016 8 N 3.7
Oggi h: 21:50 poco_nuvoloso Poco Nuvoloso 11 9 87 1016 8 SO 7.4
Oggi h: 21:20 poco_nuvoloso Poco Nuvoloso 11 9 87 1016 8 N 5.5
Oggi h: 20:50 poco_nuvoloso Poco Nuvoloso 10 8 87 1016 8 N 1.8
Oggi h: 20:20 poco_nuvoloso Poco Nuvoloso 11 9 87 1015 8 N 3.7
Oggi h: 19:50 poco_nuvoloso Poco Nuvoloso 12 9 81 1015 10 N 1.8
Oggi h: 19:20 poco_nuvoloso Poco Nuvoloso 11 9 87 1015 8 N 5.5
Oggi h: 18:50 poco_nuvoloso Poco Nuvoloso 11 8 81 1014 8 O 9.3
Oggi h: 18:20 poco_nuvoloso Poco Nuvoloso 12 9 81 1014 10 N 1.8
Oggi h: 17:50 poco_nuvoloso Poco Nuvoloso 12 9 81 1014 10 O/SO 9.3
Oggi h: 17:20 nuvoloso Nuvoloso 12 9 81 1014 10 O 14.8
Oggi h: 16:50 nuvoloso Nuvoloso 13 9 76 1014 10 O 20.3
Oggi h: 16:20 nuvoloso Nuvoloso 14 9 71 1014 10 O 14.8
Oggi h: 15:50 nuvoloso Nuvoloso 14 9 71 1014 10 O 18.5
Oggi h: 15:20 nuvoloso Nuvoloso 14 9 71 1014 10 O 22.2
Oggi h: 14:50 nuvoloso Nuvoloso 14 10 76 1014 10 O 18.5
Oggi h: 14:20 molto_nuvoloso Molto Nuvoloso 14 10 76 1014 8 O 20.3
Oggi h: 13:50 nuvoloso Nuvoloso 13 10 81 1014 8 O/NO 18.5
Oggi h: 13:20 nuvoloso Nuvoloso 14 10 76 1014 8 O/NO 16.7
Oggi h: 12:50 nuvoloso Nuvoloso 14 10 76 1014 8 O 18.5
Oggi h: 12:20 nuvoloso Nuvoloso 14 10 76 1014 10 O 18.5
Oggi h: 11:50 nuvoloso Nuvoloso 14 10 76 1015 10 O 18.5
Oggi h: 11:20 nuvoloso Nuvoloso 15 11 76 1015 9 O 16.7
Oggi h: 10:50 nuvoloso Nuvoloso 14 10 76 1015 8 O 18.5
Oggi h: 10:20 nuvoloso Nuvoloso 14 10 76 1015 8 O/NO 11.1
Oggi h: 09:50 nuvoloso Nuvoloso 14 11 82 1015 8 O 14.8
Oggi h: 09:20 poco_nuvoloso Poco Nuvoloso 14 11 82 1014 8 O 18.5
Oggi h: 08:50 poco_nuvoloso Poco Nuvoloso 13 11 87 1014 8 O 13
Oggi h: 08:20 poco_nuvoloso Poco Nuvoloso 12 10 87 1014 8 O 11.1
Oggi h: 07:50 poco_nuvoloso Poco Nuvoloso 11 10 93 1014 9 O 11.1
Oggi h: 07:20 poco_nuvoloso Poco Nuvoloso 11 9 87 1014 10 O 14.8
Oggi h: 06:50 nuvoloso Nuvoloso 12 9 81 1014 10 O 14.8
Oggi h: 06:20 molto_nuvoloso Molto Nuvoloso 12 10 87 1014 10 O 16.7
Oggi h: 05:50 coperto_pioggia Pioggia Debole 13 10 81 1013 10 O 18.5
Oggi h: 05:20 coperto_pioggia Pioggia Debole 13 11 87 1013 8 O 16.7
Oggi h: 04:50 coperto_pioggia Pioggia Debole 13 11 87 1014 10 N 3.7
Oggi h: 04:20 molto_nuvoloso Molto Nuvoloso 13 10 81 1013 10 N 5.5
Oggi h: 03:50 molto_nuvoloso Molto Nuvoloso 13 10 81 1013 10 O 20.3
Oggi h: 03:20 molto_nuvoloso Molto Nuvoloso 13 9 76 1014 10 O 13
Oggi h: 02:50 molto_nuvoloso Molto Nuvoloso 14 9 71 1014 10 O/NO 16.7
Oggi h: 02:20 molto_nuvoloso Molto Nuvoloso 14 9 71 1014 10 O 11.1
Oggi h: 01:50 molto_nuvoloso Molto Nuvoloso 14 8 67 1014 10 O 13
Oggi h: 01:20 coperto_pioggia Pioviggine Leggera 14 9 71 1013 10 O 20.3
Oggi h: 00:50 coperto_pioggia Pioggia Debole 14 10 76 1013 10 SO 13
Oggi h: 00:20 molto_nuvoloso Molto Nuvoloso 14 12 87 1014 10 O/SO 14.8
Ieri h: 23:50 molto_nuvoloso Molto Nuvoloso 14 12 87 1014 10 SO 14.8
Ieri h: 23:20 nuvoloso Nuvoloso 14 12 87 1014 10 SO 16.7
Ieri h: 22:50 nuvoloso Nuvoloso 14 11 82 1014 10 SO 14.8
Ieri h: 22:20 nuvoloso Nuvoloso 14 11 82 1014 10 SO 14.8
Ieri h: 21:50 nuvoloso Nuvoloso 14 11 82 1015 10 SO 14.8